"Pseudo-MPEC" for C35C0W2

Created 2020 Sep 19 1:07:06 UT using Find_Orb

Click here for an explanation of pseudo-MPECs

 
 Astrometry: 
     C35C0W2  C2020 09 10.38579 00 36 49.28 +04 49 59.2    ~9A9q 21.2 GVNEOCPG96
     C35C0W2  C2020 09 10.39098 00 36 46.52 +04 49 48.3    ~9A9q 21.4 GVNEOCPG96
     C35C0W2  C2020 09 10.39619 00 36 43.74 +04 49 37.1    ~9A9q 21.0 GVNEOCPG96
     C35C0W2  C2020 09 10.45396 00 36 13.39 +04 47 29.4    ~9ABM 20.9 GVNEOCPI52
     C35C0W2  C2020 09 10.45733 00 36 11.58 +04 47 22.1    ~9ABM 22.8 GVNEOCPI52
     C35C0W2  C2020 09 10.46069 00 36 09.82 +04 47 14.6    ~9ABM 21.9 GVNEOCPI52
     C35C0W2  C2020 09 10.46406 00 36 08.07 +04 47 08.1    ~9ABM 21.0 GVNEOCPI52

Station data:
(G96) Mt. Lemmon Survey  (N32.442754 W110.788720)  US/Arizona.  Observers T.
   A. Pruyne, B. M. Africano, E. J. Christensen, G. A. Farneth, D. C. Fuls,
   A. R. Gibbs, A. D. Grauer, H. Gröller, J. A. Johnson, R. A. Kowalski, S.
   M. Larson, G. J. Leonard, D. Rankin, R. L. Seaman, F. C. Shelly. 1.5-m
   reflector + 10K CCD.
(I52) Steward Observatory, Mt. Lemmon Station  (N32.442547 W110.788920)
   US/Arizona.  Observers T. A. Pruyne, B. M. Africano, E. J. Christensen, G.
   A. Farneth, D. C. Fuls, A. R. Gibbs, A. D. Grauer, H. Gröller, J. A.
   Johnson, R. A. Kowalski, S. M. Larson, G. J. Leonard, D. Rankin, R. L.
   Seaman, F. C. Shelly. 1.0-m reflector + CCD.

Orbital elements:  C35C0W2
   Perihelion 2020 May 12.035573 +/- 101 TT =  0:51:13 (JD 2458981.535573)
Epoch 2020 Sep 10.0 TT = JDT 2459102.5   Earth MOID: 0.0037   Ve: 0.0960
M 127.87950103 +/- 70               (J2000 ecliptic)          AutoNEOCP
n   1.05716617 +/- 0.371            Peri.  222.74678 +/- 53
a   0.95434897 +/- 0.223            Node   345.84218 +/- 38
e   0.1507329 +/- 0.181             Incl.    0.75332 +/- 48
P   0.93/340.53d           H 27.0   G  0.15   U 12.1  SR
q 0.81049715 +/- 0.332    Q 1.09820078 +/- 0.489
From 7 observations 2020 Sept. 10 (1.9 hr); mean residual 0".35
Residuals in arcseconds: 
200910 G96  .06+  .31-    200910 I52  .75+  .35-    200910 I52  .29-  .69+    
200910 G96  .02+  .12+    200910 I52  .08-  .20-    
200910 G96  .19-  .31+    200910 I52  .28-  .27-    

Ephemerides (geocentric):
Date (UTC) HH   RA              Dec         delta   r     elong  mag " sig PA
---- -- -- --  -------------   -----------  ------ ------ -----  --- ---- ---
2020 09 19 01  23 39 38.240   +00 15 42.57  .06420 1.0687 177.6 21.5  48d 175
2020 09 19 02  23 39 24.978   +00 14 36.40  .06427 1.0688 177.5 21.5  48d 175
2020 09 19 03  23 39 11.748   +00 13 30.38  .06434 1.0688 177.5 21.5  48d 175
2020 09 19 04  23 38 58.548   +00 12 24.50  .06442 1.0689 177.5 21.5  48d 175
2020 09 19 05  23 38 45.380   +00 11 18.76  .06449 1.0690 177.4 21.5  48d 175
2020 09 19 06  23 38 32.243   +00 10 13.16  .06457 1.0690 177.3 21.5  48d 175
2020 09 19 07  23 38 19.136   +00 09 07.71  .06464 1.0691 177.3 21.5  48d 175
2020 09 19 08  23 38 06.061   +00 08 02.40  .06471 1.0691 177.2 21.5  48d 175
2020 09 19 09  23 37 53.017   +00 06 57.23  .06479 1.0692 177.2 21.5  48d 175
2020 09 19 10  23 37 40.004   +00 05 52.20  .06486 1.0693 177.1 21.5  49d 175
2020 09 19 11  23 37 27.021   +00 04 47.32  .06494 1.0693 177.1 21.5  49d 175
2020 09 19 12  23 37 14.070   +00 03 42.58  .06501 1.0694 177.0 21.6  49d 175
2020 09 19 13  23 37 01.149   +00 02 37.98  .06508 1.0694 176.9 21.6  49d 175
2020 09 19 14  23 36 48.260   +00 01 33.52  .06516 1.0695 176.9 21.6  49d 175
2020 09 19 15  23 36 35.401   +00 00 29.21  .06523 1.0696 176.8 21.6  49d 175
2020 09 19 16  23 36 22.573   -00 00 34.96  .06531 1.0696 176.7 21.6  49d 175
2020 09 19 17  23 36 09.776   -00 01 38.99  .06538 1.0697 176.6 21.6  49d 175
2020 09 19 18  23 35 57.009   -00 02 42.88  .06546 1.0697 176.6 21.6  49d 175
2020 09 19 19  23 35 44.274   -00 03 46.62  .06554 1.0698 176.5 21.6  49d 175
2020 09 19 20  23 35 31.569   -00 04 50.22  .06561 1.0699 176.4 21.6  49d 175
2020 09 19 21  23 35 18.895   -00 05 53.68  .06569 1.0699 176.3 21.6  49d 175
2020 09 19 22  23 35 06.251   -00 06 56.99  .06576 1.0700 176.3 21.6  49d 175
2020 09 19 23  23 34 53.638   -00 08 00.16  .06584 1.0700 176.2 21.6  49d 175
2020 09 20 00  23 34 41.056   -00 09 03.19  .06591 1.0701 176.1 21.6  49d 175
2020 09 20 01  23 34 28.505   -00 10 06.08  .06599 1.0701 176.0 21.6  49d 175
2020 09 20 02  23 34 15.984   -00 11 08.82  .06607 1.0702 175.9 21.7  49d 175
2020 09 20 03  23 34 03.493   -00 12 11.42  .06614 1.0703 175.9 21.7  49d 175
2020 09 20 04  23 33 51.033   -00 13 13.88  .06622 1.0703 175.8 21.7  49d 175
2020 09 20 05  23 33 38.604   -00 14 16.20  .06630 1.0704 175.7 21.7  49d 176
2020 09 20 06  23 33 26.205   -00 15 18.37  .06637 1.0704 175.6 21.7  49d 176
2020 09 20 07  23 33 13.837   -00 16 20.40  .06645 1.0705 175.5 21.7  49d 176
2020 09 20 08  23 33 01.499   -00 17 22.29  .06653 1.0706 175.5 21.7  50d 176
2020 09 20 09  23 32 49.191   -00 18 24.04  .06660 1.0706 175.4 21.7  50d 176
2020 09 20 10  23 32 36.914   -00 19 25.64  .06668 1.0707 175.3 21.7  50d 176
2020 09 20 11  23 32 24.667   -00 20 27.10  .06676 1.0707 175.2 21.7  50d 176
2020 09 20 12  23 32 12.450   -00 21 28.42  .06684 1.0708 175.1 21.7  50d 176
2020 09 20 13  23 32 00.264   -00 22 29.59  .06691 1.0708 175.0 21.7  50d 176
2020 09 20 14  23 31 48.108   -00 23 30.62  .06699 1.0709 175.0 21.7  50d 176
2020 09 20 15  23 31 35.982   -00 24 31.51  .06707 1.0710 174.9 21.7  50d 176
2020 09 20 16  23 31 23.886   -00 25 32.26  .06715 1.0710 174.8 21.7  50d 176
2020 09 20 17  23 31 11.821   -00 26 32.87  .06722 1.0711 174.7 21.8  50d 176
2020 09 20 18  23 30 59.786   -00 27 33.33  .06730 1.0711 174.6 21.8  50d 176
2020 09 20 19  23 30 47.780   -00 28 33.65  .06738 1.0712 174.5 21.8  50d 176
2020 09 20 20  23 30 35.805   -00 29 33.83  .06746 1.0712 174.5 21.8  50d 176
2020 09 20 21  23 30 23.860   -00 30 33.86  .06754 1.0713 174.4 21.8  50d 176
2020 09 20 22  23 30 11.945   -00 31 33.76  .06762 1.0714 174.3 21.8  50d 176
2020 09 20 23  23 30 00.060   -00 32 33.51  .06770 1.0714 174.2 21.8  50d 176
2020 09 21 00  23 29 48.205   -00 33 33.12  .06777 1.0715 174.1 21.8  50d 176